Darwin, CA

2:33 AM PDT on September 28, 2016 (GMT -0700)
China Lake NAWS

Weather History for KNID - May, 2013

Change the Weather History Date:

Wednesday, May 15, 2013

  Actual Average Record
Temperature  
Mean Temperature 80 °F -  
Max Temperature 97 °F 84 °F 97 °F (2008)
Min Temperature 64 °F 57 °F 45 °F (2015)
Cooling Degree Days 16    
Growing Degree Days 30 (Base 50)    
Moisture  
Dew Point 32 °F    
Average Humidity 18    
Maximum Humidity 35    
Minimum Humidity 9    
Precipitation  
Precipitation 0.00 in - - ()
Sea Level Pressure  
Sea Level Pressure 29.77 in    
Wind  
Wind Speed 9 mph (WSW)    
Max Wind Speed 22 mph    
Max Gust Speed 29 mph    
Visibility 10 miles    
Events      
Averages and records for this station are not official NWS values.
T = Trace of Precipitation, MM = Missing Value Source: NWS Daily Summary

Daily Weather History Graph

Daily Weather History Graph

Search for Another Location

Airport or City:

Trip Planner

Search our weather history database for the weather conditions in past years. The results will help you decide how hot, cold, wet, or windy it might be!

Date:

Astronomy

May. 15, 2013 Rise Set
Actual Time 5:45 AM PDT 7:49 PM PDT
Civil Twilight 5:17 AM PDT 8:17 PM PDT
Nautical Twilight 4:42 AM PDT 8:52 PM PDT
Astronomical Twilight 4:05 AM PDT 9:29 PM PDT
Moon 10:23 AM PDT (5/15) No Moon Set
Length of Visible Light 15h 00m
Length of Day
14h 03m
Waxing Crescent, 28% of the Moon is Illuminated
May 15
Waxing Crescent
May 17
First Quarter
May 24
Full
May 31
Last Quarter
Jun 8
New

Hourly Weather History & Observations

Time (PDT) Temp. Dew Point Humidity Pressure Visibility Wind Dir Wind Speed Gust Speed Precip Events Conditions
12:56 AM 73.0 °F 34.0 °F 24% 29.80 in 10.0 mi SW 9.2 mph - N/A   Clear
1:56 AM 75.0 °F 34.0 °F 22% 29.79 in 10.0 mi WSW 10.4 mph - N/A   Clear
2:56 AM 72.0 °F 35.1 °F 26% 29.80 in 10.0 mi West 4.6 mph - N/A   Clear
3:56 AM 72.0 °F 36.0 °F 27% 29.81 in 10.0 mi WSW 8.1 mph - N/A   Clear
4:56 AM 64.9 °F 35.1 °F 33% 29.82 in 10.0 mi SSW 4.6 mph - N/A   Clear
5:56 AM 64.0 °F 36.0 °F 35% 29.83 in 10.0 mi South 6.9 mph - N/A   Partly Cloudy
6:56 AM 71.1 °F 39.0 °F 31% 29.84 in 10.0 mi South 4.6 mph - N/A   Partly Cloudy
7:56 AM 78.1 °F 37.9 °F 24% 29.85 in 10.0 mi SW 3.5 mph - N/A   Partly Cloudy
8:56 AM 81.0 °F 37.0 °F 21% 29.85 in 10.0 mi Calm Calm - N/A   Partly Cloudy
9:56 AM 84.0 °F 36.0 °F 18% 29.85 in 10.0 mi West 4.6 mph - N/A   Partly Cloudy
10:56 AM 88.0 °F 35.1 °F 15% 29.83 in 10.0 mi Variable 3.5 mph - N/A   Partly Cloudy
11:56 AM 91.0 °F 34.0 °F 13% 29.81 in 10.0 mi Variable 4.6 mph - N/A   Partly Cloudy
12:56 PM 93.0 °F 30.9 °F 11% 29.79 in 10.0 mi Variable 6.9 mph - N/A   Partly Cloudy
1:56 PM 95.0 °F 30.0 °F 10% 29.75 in 10.0 mi ESE 4.6 mph - N/A   Partly Cloudy
2:56 PM 96.1 °F 28.0 °F 9% 29.73 in 10.0 mi WSW 8.1 mph - N/A   Partly Cloudy
3:56 PM 97.0 °F 30.9 °F 10% 29.71 in 10.0 mi West 16.1 mph 20.7 mph N/A   Partly Cloudy
4:56 PM 96.1 °F 27.0 °F 9% 29.70 in 10.0 mi West 18.4 mph 26.5 mph N/A   Partly Cloudy
5:56 PM 91.9 °F 27.0 °F 10% 29.69 in 10.0 mi West 21.9 mph 27.6 mph N/A   Partly Cloudy
6:56 PM 87.1 °F 28.9 °F 12% 29.70 in 10.0 mi WSW 20.7 mph 28.8 mph N/A   Scattered Clouds
7:56 PM 82.9 °F 28.9 °F 14% 29.70 in 10.0 mi SW 18.4 mph 25.3 mph N/A   Clear
8:56 PM 82.9 °F 28.0 °F 14% 29.72 in 10.0 mi West 15.0 mph - N/A   Clear
9:56 PM 81.0 °F 28.9 °F 15% 29.72 in 10.0 mi West 17.3 mph - N/A   Clear
10:56 PM 81.0 °F 26.1 °F 13% 29.72 in 10.0 mi West 18.4 mph - N/A   Clear
11:56 PM 79.0 °F 28.0 °F 15% 29.73 in 10.0 mi WNW 13.8 mph - N/A   Clear